Location: Newark
(7.0858°N, 171.3717°E)
Time: 06:16:06
(UTC+00:00)

Courier 1B - Pass Details

Date: 30 November 2020
Orbit: 962 x 1209 km, 28.3° (Epoch: 20 January)

Event Time Altitude Azimuth Distance (km) Brightness Sun altitude
Rises 18:35:29 0° 281° (W) 4,069 10.1 0.1°
Reaches altitude 10° 18:38:36 10° 272° (W) 3,124 9.6 0.9°
Maximum altitude 18:45:28 34° 211° (SSW) 1,885 9.0 2.4°
Drops below altitude 10° 18:52:22 10° 149° (SSE) 3,123 11.2 4.0°
Sets 18:55:31 0° 140° (SE) 4,068 12.0 4.7°
